• In Romania
  • List of Countries
  • For 7 days
  • Water Temperature
  • Satellite Maps
  • Weather Map
  • Weather Widgets
  • user-avatar
    Login

    Hourly Weather Sankt Polten

    Today, 26 September, Tuesday

    Time Temperature Precipitation Wind Pressure Humidity
    00:00 +11°C° 0 mm 1 mps 740 mmHg 92%
    01:00 +11°C° 0 mm 1 mps 740 mmHg 92%
    02:00 +11°C° 0 mm 1 mps 740 mmHg 92%
    03:00 +11°C° 0 mm 1 mps 740 mmHg 92%
    04:00 +11°C° 0 mm 1 mps 740 mmHg 92%
    05:00 +11°C° 0 mm 1 mps 740 mmHg 91%
    06:00 +12°C° 0 mm 1 mps 741 mmHg 90%
    07:00 +12°C° 0 mm 1 mps 741 mmHg 90%
    08:00 +13°C° 0.1 mm 2 mps 741 mmHg 86%
    09:00 +15°C° 0.1 mm 2 mps 741 mmHg 82%
    10:00 +16°C° 0.1 mm 2 mps 741 mmHg 79%
    11:00 +17°C° 0 mm 2 mps 741 mmHg 74%
    12:00 +19°C° 0 mm 2 mps 741 mmHg 69%
    13:00 +20°C° 0 mm 3 mps 741 mmHg 64%
    14:00 +20°C° 0.1 mm 3 mps 741 mmHg 65%
    15:00 +20°C° 0.1 mm 3 mps 741 mmHg 67%
    16:00 +20°C° 0.1 mm 2 mps 741 mmHg 68%
    17:00 +18°C° 0 mm 2 mps 741 mmHg 73%
    18:00 +17°C° 0 mm 2 mps 741 mmHg 78%
    19:00 +15°C° 0 mm 2 mps 741 mmHg 83%
    20:00 +15°C° 0 mm 2 mps 741 mmHg 84%
    21:00 +14°C° 0 mm 1 mps 741 mmHg 86%
    22:00 +14°C° 0 mm 1 mps 742 mmHg 87%
    23:00 +13°C° 0 mm 1 mps 742 mmHg 88%

    Tomorrow, 27 September, Wednesday

    Time Temperature Precipitation Wind Pressure Humidity
    00:00 +13°C° 0 mm 1 mps 742 mmHg 90%
    01:00 +13°C° 0 mm 1 mps 742 mmHg 91%
    02:00 +12°C° 0 mm 1 mps 742 mmHg 91%
    03:00 +12°C° 0 mm 1 mps 742 mmHg 92%
    04:00 +12°C° 0 mm 1 mps 741 mmHg 92%
    05:00 +12°C° 0 mm 1 mps 742 mmHg 91%
    06:00 +13°C° 0 mm 1 mps 742 mmHg 90%
    07:00 +13°C° 0 mm 1 mps 742 mmHg 89%
    08:00 +15°C° 0 mm 1 mps 742 mmHg 81%
    09:00 +17°C° 0 mm 2 mps 742 mmHg 74%
    10:00 +19°C° 0 mm 2 mps 742 mmHg 66%
    11:00 +20°C° 0 mm 2 mps 742 mmHg 64%
    12:00 +21°C° 0 mm 3 mps 742 mmHg 61%
    13:00 +22°C° 0 mm 3 mps 742 mmHg 59%
    14:00 +21°C° 0 mm 3 mps 742 mmHg 61%
    15:00 +21°C° 0 mm 3 mps 742 mmHg 62%
    16:00 +21°C° 0 mm 3 mps 742 mmHg 64%
    17:00 +19°C° 0 mm 3 mps 742 mmHg 69%
    18:00 +17°C° 0 mm 2 mps 742 mmHg 75%
    19:00 +15°C° 0 mm 2 mps 742 mmHg 80%
    20:00 +15°C° 0 mm 2 mps 742 mmHg 81%
    21:00 +14°C° 0 mm 2 mps 743 mmHg 83%
    22:00 +14°C° 0 mm 2 mps 743 mmHg 84%
    23:00 +13°C° 0 mm 1 mps 743 mmHg 85%

    Day after tomorrow, 28 September, Thursday

    Time Temperature Precipitation Wind Pressure Humidity
    00:00 +13°C° 0 mm 1 mps 743 mmHg 86%
    01:00 +12°C° 0 mm 1 mps 743 mmHg 87%
    02:00 +12°C° 0 mm 1 mps 743 mmHg 87%
    03:00 +12°C° 0 mm 1 mps 743 mmHg 88%
    04:00 +12°C° 0 mm 1 mps 743 mmHg 88%
    05:00 +12°C° 0 mm 1 mps 743 mmHg 88%
    06:00 +12°C° 0 mm 1 mps 744 mmHg 87%
    07:00 +13°C° 0 mm 1 mps 744 mmHg 86%
    08:00 +15°C° 0 mm 1 mps 744 mmHg 77%
    09:00 +18°C° 0 mm 1 mps 744 mmHg 68%
    10:00 +21°C° 0 mm 1 mps 744 mmHg 59%
    11:00 +20°C° 0 mm 2 mps 744 mmHg 56%
    12:00 +21°C° 0 mm 2 mps 744 mmHg 53%
    13:00 +23°C° 0 mm 2 mps 744 mmHg 49%
    14:00 +23°C° 0 mm 2 mps 744 mmHg 52%
    15:00 +21°C° 0 mm 2 mps 743 mmHg 54%
    16:00 +21°C° 0 mm 2 mps 743 mmHg 57%
    17:00 +19°C° 0 mm 2 mps 743 mmHg 63%
    18:00 +17°C° 0 mm 2 mps 743 mmHg 70%
    19:00 +14°C° 0 mm 2 mps 744 mmHg 77%
    20:00 +14°C° 0 mm 2 mps 744 mmHg 79%
    21:00 +13°C° 0 mm 1 mps 744 mmHg 81%
    22:00 +13°C° 0 mm 1 mps 744 mmHg 83%
    23:00 +12°C° 0 mm 1 mps 744 mmHg 84%

    29 September, Friday

    Time Temperature Precipitation Wind Pressure Humidity
    00:00 +12°C° 0 mm 1 mps 744 mmHg 85%
    01:00 +11°C° 0 mm 1 mps 744 mmHg 86%
    02:00 +11°C° 0 mm 1 mps 744 mmHg 86%
    03:00 +11°C° 0 mm 1 mps 743 mmHg 87%
    04:00 +11°C° 0 mm 1 mps 743 mmHg 87%
    05:00 +11°C° 0 mm 1 mps 743 mmHg 86%
    06:00 +11°C° 0 mm 1 mps 744 mmHg 84%
    07:00 +11°C° 0 mm 1 mps 744 mmHg 83%
    08:00 +14°C° 0 mm 1 mps 744 mmHg 74%
    09:00 +16°C° 0 mm 1 mps 743 mmHg 66%
    10:00 +18°C° 0 mm 2 mps 743 mmHg 57%
    11:00 +19°C° 0 mm 2 mps 743 mmHg 55%
    12:00 +20°C° 0 mm 2 mps 743 mmHg 52%
    13:00 +21°C° 0 mm 3 mps 742 mmHg 50%
    14:00 +20°C° 0 mm 3 mps 742 mmHg 52%
    15:00 +20°C° 0 mm 3 mps 742 mmHg 55%
    16:00 +19°C° 0 mm 3 mps 742 mmHg 57%
    17:00 +17°C° 0 mm 2 mps 742 mmHg 63%
    18:00 +15°C° 0 mm 2 mps 742 mmHg 69%
    19:00 +13°C° 0 mm 2 mps 742 mmHg 75%
    20:00 +13°C° 0 mm 2 mps 742 mmHg 77%
    21:00 +12°C° 0 mm 1 mps 742 mmHg 79%
    22:00 +11°C° 0 mm 1 mps 742 mmHg 81%
    23:00 +11°C° 0 mm 1 mps 742 mmHg 82%

    30 September, Saturday

    Time Temperature Precipitation Wind Pressure Humidity
    00:00 +11°C° 0 mm 1 mps 742 mmHg 83%
    01:00 +10°C° 0 mm 1 mps 742 mmHg 85%
    02:00 +10°C° 0 mm 1 mps 742 mmHg 86%
    03:00 +10°C° 0 mm 1 mps 742 mmHg 86%
    04:00 +9°C° 0 mm 1 mps 741 mmHg 87%
    05:00 +10°C° 0 mm 1 mps 742 mmHg 86%
    06:00 +10°C° 0 mm 1 mps 742 mmHg 84%
    07:00 +10°C° 0 mm 1 mps 742 mmHg 83%
    08:00 +13°C° 0 mm 1 mps 741 mmHg 74%
    09:00 +15°C° 0 mm 1 mps 741 mmHg 65%
    10:00 +18°C° 0 mm 1 mps 741 mmHg 56%
    11:00 +18°C° 0 mm 2 mps 741 mmHg 53%
    12:00 +19°C° 0 mm 2 mps 740 mmHg 50%
    13:00 +20°C° 0 mm 2 mps 740 mmHg 47%
    14:00 +19°C° 0 mm 3 mps 740 mmHg 49%
    15:00 +19°C° 0 mm 3 mps 739 mmHg 51%
    16:00 +19°C° 0 mm 3 mps 739 mmHg 54%
    17:00 +16°C° 0 mm 2 mps 739 mmHg 60%
    18:00 +14°C° 0 mm 2 mps 739 mmHg 66%
    19:00 +12°C° 0 mm 2 mps 739 mmHg 73%
    20:00 +12°C° 0 mm 2 mps 740 mmHg 74%
    21:00 +10°C° 0 mm 2 mps 740 mmHg 76%
    22:00 +11°C° 0 mm 1 mps 740 mmHg 78%
    23:00 +10°C° 0 mm 1 mps 740 mmHg 79%

    1 October, Sunday

    Time Temperature Precipitation Wind Pressure Humidity
    00:00 +10°C° 0 mm 1 mps 740 mmHg 80%
    01:00 +9°C° 0 mm 1 mps 740 mmHg 81%
    02:00 +9°C° 0 mm 1 mps 740 mmHg 82%
    03:00 +9°C° 0 mm 1 mps 740 mmHg 83%
    04:00 +8°C° 0 mm 1 mps 740 mmHg 83%
    05:00 +9°C° 0 mm 1 mps 740 mmHg 82%
    06:00 +9°C° 0 mm 1 mps 740 mmHg 82%
    07:00 +9°C° 0 mm 1 mps 740 mmHg 81%
    08:00 +12°C° 0 mm 1 mps 740 mmHg 71%
    09:00 +14°C° 0 mm 2 mps 740 mmHg 62%
    10:00 +16°C° 0 mm 2 mps 740 mmHg 53%
    11:00 +17°C° 0 mm 3 mps 740 mmHg 49%
    12:00 +18°C° 0 mm 3 mps 740 mmHg 46%
    13:00 +19°C° 0 mm 3 mps 740 mmHg 43%
    14:00 +19°C° 0 mm 3 mps 740 mmHg 45%
    15:00 +18°C° 0 mm 3 mps 740 mmHg 47%
    16:00 +18°C° 0 mm 3 mps 739 mmHg 49%
    17:00 +16°C° 0 mm 3 mps 740 mmHg 55%
    18:00 +14°C° 0 mm 2 mps 740 mmHg 61%
    19:00 +10°C° 0 mm 2 mps 740 mmHg 66%
    20:00 +10°C° 0 mm 2 mps 740 mmHg 68%
    21:00 +9°C° 0 mm 2 mps 741 mmHg 70%
    22:00 +10°C° 0 mm 1 mps 741 mmHg 72%
    23:00 +9°C° 0 mm 1 mps 741 mmHg 74%
    Show more